Other Public Products
Issued by NWS Grand Forks, ND

Home | Current Version | Previous Version | Graphics & Text | Print | Product List | Glossary On
Versions: 1 2 3 4 5 6 7 8 9 10 11 12 13 14 15 16 17 18 19 20 21 22 23 24 25 26 27 28 29 30 31 32 33 34 35 36 37 38 39 40 41 42 43 44 45 46 47 48 49 50
000
FPUS83 KFGF 241810
OPUFGF
PRAIRIE TO PINES WEATHER ROUNDUP
NATIONAL WEATHER SERVICE EASTERN NORTH DAKOTA/GRAND FORKS ND
100 PM CDT FRI MAR 24 2017

 **SATELLITE DATA USED TO AUGMENT SKY COVER AT AUTOMATED STATIONS**
 *****  WEATHER ACROSS EASTERN NORTH DAKOTA  *****

CITY           SKY/WX    TMP DP  RH WIND       PRES   REMARKS
GRAND FORKS    CLOUDY    34  29  82 N16       30.21R WCI  24
6HR MIN TEMP:  30; 6HR MAX TEMP:  36;

GRAND FORKS AF CLOUDY    34  27  75 N13       30.21R
GRAND CITY NWS NOT AVBL
BUXTON         NOT AVBL
DEVILS LAKE    CLOUDY    32  25  75 NE10      30.22R WCI  24
6HR MIN TEMP:  25; 6HR MAX TEMP:  32;

FARGO          CLOUDY    36  30  79 N13       30.19R
6HR MIN TEMP:  35; 6HR MAX TEMP:  39;

WAHPETON ARPT  CLOUDY    37  32  81 N10       30.16S
$$

 *****  WEATHER ACROSS CENTRAL AND WESTERN NORTH DAKOTA  *****

CITY           SKY/WX    TMP DP  RH WIND       PRES   REMARKS
JAMESTOWN      FAIR      37  31  78 N12       30.18S
6HR MIN TEMP:  29; 6HR MAX TEMP:  38;

BISMARCK       FAIR      40  31  70 E9        30.19S
6HR MIN TEMP:  25; 6HR MAX TEMP:  41;

MINOT          FAIR      36  26  67 E10       30.20R
6HR MIN TEMP:  24; 6HR MAX TEMP:  36;

MINOT AFB      FAIR      34  28  76 SE10      30.19R
6HR MIN TEMP:  24; 6HR MAX TEMP:  34;

GARRISON         N/A     36  28  73 SE9       30.19R
6HR MIN TEMP:  25; 6HR MAX TEMP:  36;

WILLISTON      FAIR      48  32  53 SE8       30.12F
6HR MIN TEMP:  24; 6HR MAX TEMP:  48;

DICKINSON      FAIR      49  31  49 E5        30.11S
6HR MIN TEMP:  21; 6HR MAX TEMP:  49;

HETTINGER      FAIR      47  39  74 VRB5      30.15R
6HR MIN TEMP:  28; 6HR MAX TEMP:  47;

$$

 *****  OTHER OBSERVATIONS NORTHEAST NORTH DAKOTA  *****

CITY           SKY/WX    TMP DP  RH WIND       PRES   REMARKS
WALHALLA       NOT AVBL
LANGDON        CLOUDY    32  27  80 NE12      30.21R WCI  23
CAVALIER         N/A     32  27  80 N10       30.23R WCI  24
GRAFTON        CLOUDY    34  28  80 N12       30.24R
CANDO          NOT AVBL
FORT TOTTEN      N/A     35  27  72 NE7       29.95S
ROLLA          CLOUDY    28  25  86 NE9       30.22R WCI  20
RUGBY            N/A     30  27  86 E10       30.22R WCI  21
 ***** THE ABOVE OBSERVATIONS ARE NON NWS ARE NOT QUALITY
        CONTROLLED AND MAY MIS-REPORT RAIN FOR SNOW...
$$

 *****  OTHER OBSERVATIONS SOUTHEAST NORTH DAKOTA *****

CITY           SKY/WX    TMP DP  RH WIND       PRES   REMARKS
COOPERSTOWN    CLOUDY    34  30  86 N14       30.20S WCI  24
VALLEY CITY    MOCLDY    37  32  81 N13       30.19F
OAKES          NOT AVBL
GWINNER        MOCLDY    39  34  81 MISG      30.17F
SHEYENNE NWR     N/A     40  29  65 NE10      29.95S
BUFFALO        NOT AVBL
WYNDMERE       NOT AVBL
 ***** THE ABOVE OBSERVATIONS ARE NON NWS ARE NOT QUALITY
       CONTROLLED AND MAY MIS-REPORT RAIN FOR SNOW...
$$

  *****  WEATHER ACROSS NORTHERN MINNESOTA  *****

CITY           SKY/WX    TMP DP  RH WIND       PRES   REMARKS
FLAG ISLAND    CLOUDY    34  21  60 N12G17    30.18R
WARROAD        CLOUDY    36  27  69 N12       30.19R
ROSEAU         PTSUNNY   36  28  75 N10       30.19R
HALLOCK        CLOUDY    34  30  86 N9        30.21R
THF RVR FALLS  CLOUDY   N/A N/A N/A N13       30.18R
HALSTAD          N/A     34  28  79 N12         N/A
FOSSTON        CLOUDY    36  30  80 N10G16    30.16R
BAUDETTE       CLOUDY    39  26  59 N13       30.14R
6HR MIN TEMP:  28; 6HR MAX TEMP:  41;

WASKISH        CLOUDY    41  30  65 NW6       30.13R
CROOKSTON      CLOUDY    36  30  80 N12       30.20R
$$
  *****  WEATHER ACROSS CENTRAL AND WEST MINNESOTA  *****

CITY           SKY/WX    TMP DP  RH WIND       PRES   REMARKS
BEMIDJI        PTSUNNY   38  32  79 NW9       30.13R
PARK RAPIDS    CLOUDY    40  29  64 N12       30.11R
6HR MIN TEMP:  34; 6HR MAX TEMP:  40;

WADENA         CLOUDY    37  32  81 N12       30.11R
DETROIT LAKES  PTSUNNY   39  34  81 N12       30.14S
MOORHEAD       CLOUDY    36  30  80 N14       30.20R
FERGUS FALLS   PTSUNNY   41  34  75 N9        30.16S
ELBOW LAKE     CLOUDY    38  33  81 NE12      30.12F HAZE
6HR MIN TEMP:  32; 6HR MAX TEMP:  38;

MORRIS MN      FAIR      39  36  87 N17       30.09F
STAPLES        CLOUDY    36  34  93 N9        30.11S
WHEATON        CLOUDY    39  34  81 N15       30.15F
$$
  *****  WEATHER ELSEWHERE ACROSS MINNESOTA  *****

CITY           SKY/WX    TMP DP  RH WIND       PRES   REMARKS
DULUTH         CLOUDY    37  34  89 N8        30.08R FOG
6HR MIN TEMP:  33; 6HR MAX TEMP:  37; 6HR PCP: TRACE;

INTRNTL FALLS  CLOUDY    38  27  64 N8        30.13R
6HR MIN TEMP:  33; 6HR MAX TEMP:  39;

ELY            CLOUDY    36  34  93 NE5       30.08R
CLOQUET        CLOUDY    36  34  93 N7        30.08R FOG
BRAINERD       CLOUDY    38  33  82 NE8       30.10R
6HR MIN TEMP:  33; 6HR MAX TEMP:  38;

HIBBING        CLOUDY    35  33  92 N6        30.10R
6HR MIN TEMP:  32; 6HR MAX TEMP:  35;

ALEXANDRIA     CLOUDY    37  34  89 N13       30.10F
6HR MIN TEMP:  34; 6HR MAX TEMP:  38;

SAINT CLOUD    CLOUDY    39  34  82 N14       30.08R
6HR MIN TEMP:  34; 6HR MAX TEMP:  41;

MINNEAPOLIS    CLOUDY    42  35  76 N12       30.06R
6HR MIN TEMP:  38; 6HR MAX TEMP:  42; 6HR PCP: TRACE;

$$

  *****  WEATHER ACROSS SOUTH DAKOTA  *****

CITY           SKY/WX    TMP DP  RH WIND       PRES   REMARKS
SIOUX FALLS    CLOUDY    43  37  79 NE14      30.07R
6HR MIN TEMP:  38; 6HR MAX TEMP:  43;

BROOKINGS      CLOUDY    38  35  89 NE18      30.04R
WATERTOWN      CLOUDY    35  34  96 N21       30.08R FOG     WCI  24
6HR MIN TEMP:  35; 6HR MAX TEMP:  36;

HURON          CLOUDY    41  35  79 N16       30.10R
6HR MIN TEMP:  36; 6HR MAX TEMP:  41;

SISSETON         N/A     38  34  85 N16       30.13S
ABERDEEN       CLOUDY    38  30  73 NE16      30.15S
6HR MIN TEMP:  34; 6HR MAX TEMP:  38;

MITCHELL       CLOUDY    44  38  79 N13       30.10R
PIERRE         FAIR      52  36  54 N14       30.10F
6HR MIN TEMP:  37; 6HR MAX TEMP:  53;

MOBRIDGE       FAIR      50  32  50 NE9       30.11F
RAPID CITY     FAIR      59  37  44 N21       30.10F
6HR MIN TEMP:  40; 6HR MAX TEMP:  59;

$$

  *****  SOME WEATHER IN NEARBY STATES *****

CITY           SKY/WX    TMP DP  RH WIND       PRES   REMARKS
GLASGOW MT     FAIR      50  29  44 S8        30.04F
6HR MIN TEMP:  27; 6HR MAX TEMP:  50;

GREAT FALLS MT FAIR      56  20  24 S17G23    29.91F
6HR MIN TEMP:  26; 6HR MAX TEMP:  56;

CHEYENNE WY    PTSUNNY   45  28  51 N18G41    30.12R
6HR MIN TEMP:  33; 6HR MAX TEMP:  45; 6HR PCP:  0.01;

SCOTTSBLUFF NE FAIR      55  35  47 N21G28    30.11R
6HR MIN TEMP:  41; 6HR MAX TEMP:  55;

OMAHA NE       CLOUDY    47  43  86 N14       29.93R FOG
6HR MIN TEMP:  47; 6HR MAX TEMP:  53; 6HR PCP:  0.04;

DES MOINES IA  LGT RAIN  49  46  90 N9        29.95R FOG
6HR MIN TEMP:  49; 6HR MAX TEMP:  65; 6HR PCP:  0.19;

DAVENPORT IA   FAIR      76  42  29 SW21G31   29.88R
6HR MIN TEMP:  53; 6HR MAX TEMP:  78;

CHICAGO IL     FAIR      79  43  27 SW25G35   29.89F
6HR MIN TEMP:  52; 6HR MAX TEMP:  79;

EAU CLAIRE WI  CLOUDY    39  37  92 N7        30.02R
6HR MIN TEMP:  37; 6HR MAX TEMP:  40; 6HR PCP:  0.07;

LA CROSSE WI   CLOUDY    43  41  93 N8        29.96R FOG
6HR MIN TEMP:  41; 6HR MAX TEMP:  43; 6HR PCP:  0.03;

$$

  *****  SOME NATIONAL WEATHER *****

CITY           SKY/WX    TMP DP  RH WIND       PRES   REMARKS
LA GUARDIA NY  LGT RAIN  48  26  42 SW18G25   30.27F
6HR MIN TEMP:  39; 6HR MAX TEMP:  49; 6HR PCP: TRACE;



USA.gov is the U.S. government's official web portal to all federal, state and local government web resources and services.